Weather History for Meridian NAS, MS

Change the Weather History Date:

Wednesday, August 27, 2014

  Actual Average Record
Temperature  
Mean Temperature 78 °F -  
Max Temperature 95 °F 87 °F 97 °F (2011)
Min Temperature 64 °F 68 °F 62 °F (2013)
Cooling Degree Days 14    
Growing Degree Days 28 (Base 50)    
Moisture  
Dew Point 62 °F    
Average Humidity 61    
Maximum Humidity 93    
Minimum Humidity 31    
Precipitation  
Precipitation 0.00 in - - ()
Sea Level Pressure  
Sea Level Pressure 30.06 in    
Wind  
Wind Speed 2 mph (NE)    
Max Wind Speed 10 mph    
Max Gust Speed -    
Visibility 10 miles    
Events      
Averages and records for this station are not official NWS values.
T = Trace of Precipitation, MM = Missing Value Source: NWS Daily Summary

Daily Weather History Graph

Daily Weather History Graph

Search for Another Location

Airport:

Trip Planner

Search our weather history database for the weather conditions in past years. The results will help you decide how hot, cold, wet, or windy it might be!

Date:

Astronomy

Aug. 27, 2014 Rise Set
Actual Time 6:25 AM CDT 7:24 PM CDT
Civil Twilight 6:00 AM CDT 7:50 PM CDT
Nautical Twilight 5:30 AM CDT 8:20 PM CDT
Astronomical Twilight 4:59 AM CDT 8:50 PM CDT
Moon 8:12 AM CDT (8/27) 8:27 PM CDT (8/27)
Length of Visible Light 13h 49m
Length of Day
12h 59m
Waxing Crescent, 4% of the Moon is Illuminated
Aug 27
Waxing Crescent
Sep 2
First Quarter
Sep 8
Full
Sep 15
Last Quarter
Sep 24
New

Hourly Weather History & Observations

Time (CDT) Temp. Heat Index Dew Point Humidity Pressure Visibility Wind Dir Wind Speed Gust Speed Precip Events Conditions
12:56 AM 68.0 °F - 64.0 °F 87% 30.05 in 10.0 mi Calm Calm - N/A   Clear
1:56 AM 66.9 °F - 64.0 °F 90% 30.05 in 10.0 mi Calm Calm - N/A   Clear
2:56 AM 66.9 °F - 63.0 °F 87% 30.06 in 10.0 mi West 3.5 mph - N/A   Clear
3:56 AM 66.9 °F - 64.0 °F 90% 30.06 in 10.0 mi Calm Calm - N/A   Clear
4:56 AM 64.9 °F - 63.0 °F 93% 30.06 in 10.0 mi Calm Calm - N/A   Clear
5:56 AM 64.0 °F - 62.1 °F 93% 30.07 in 10.0 mi Calm Calm - N/A   Clear
6:56 AM 64.0 °F - 62.1 °F 93% 30.10 in 10.0 mi Calm Calm - N/A   Partly Cloudy
7:56 AM 70.0 °F - 64.0 °F 81% 30.11 in 10.0 mi Calm Calm - N/A   Scattered Clouds
8:56 AM 78.1 °F - 64.0 °F 62% 30.11 in 10.0 mi East 3.5 mph - N/A   Scattered Clouds
9:56 AM 82.9 °F 84.4 °F 64.0 °F 53% 30.11 in 10.0 mi Variable 3.5 mph - N/A   Scattered Clouds
10:56 AM 88.0 °F 88.7 °F 63.0 °F 43% 30.12 in 10.0 mi ESE 4.6 mph - N/A   Scattered Clouds
11:56 AM 90.0 °F 89.1 °F 59.0 °F 35% 30.10 in 10.0 mi Variable 4.6 mph - N/A   Scattered Clouds
12:56 PM 93.0 °F 92.3 °F 59.0 °F 32% 30.09 in 10.0 mi North 10.4 mph - N/A   Scattered Clouds
1:56 PM 91.9 °F 90.8 °F 57.9 °F 32% 30.07 in 10.0 mi Variable 4.6 mph - N/A   Scattered Clouds
2:56 PM 91.0 °F 90.0 °F 57.9 °F 33% 30.05 in 10.0 mi East 4.6 mph - N/A   Scattered Clouds
3:56 PM 93.9 °F 93.2 °F 59.0 °F 31% 30.03 in 10.0 mi NNE 5.8 mph - N/A   Scattered Clouds
4:56 PM 93.0 °F 92.0 °F 57.9 °F 31% 30.02 in 10.0 mi ENE 5.8 mph - N/A   Partly Cloudy
5:56 PM 91.9 °F 90.6 °F 57.0 °F 31% 30.01 in 10.0 mi NNE 5.8 mph - N/A   Clear
6:56 PM 89.1 °F 88.0 °F 57.9 °F 35% 30.01 in 10.0 mi North 3.5 mph - N/A   Clear
7:56 PM 82.9 °F 83.7 °F 62.1 °F 49% 30.01 in 10.0 mi Calm Calm - N/A   Clear
8:56 PM 78.1 °F - 64.9 °F 64% 30.02 in 10.0 mi Calm Calm - N/A   Clear
9:56 PM 73.0 °F - 64.0 °F 73% 30.04 in 10.0 mi Calm Calm - N/A   Clear
10:56 PM 73.0 °F - 64.9 °F 76% 30.04 in 10.0 mi Calm Calm - N/A   Clear
11:56 PM 72.0 °F - 66.0 °F 81% 30.04 in 10.0 mi WNW 3.5 mph - N/A   Clear